Location: Karaköy
(37.1426°N, 29.7689°E)
Time: 13:23:32
(UTC+00:00)

Daily predictions for brighter satellites

Satellite Brightness Start Highest point End
(mag) Time Altitude Azimuth Time Altitude Azimuth Time Altitude Azimuth
Meteor 1-31 Rocket 3.7 17:22:35 10° SE 17:25:30 25° ENE 17:28:24 10° NNE
Cosmos 1818 4.0 17:20:39 10° NW 17:26:03 65° WSW 17:31:24 10° SSE
Resurs 01 Rocket 3.0 17:23:22 10° S 17:27:29 42° W 17:31:38 10° NNW
Cosmos 1697 Rocket 4.0 17:23:19 10° N 17:27:47 24° ENE 17:32:13 10° ESE
COSMOS 2455 4.3 17:25:22 10° NW 17:30:49 37° WSW 17:36:14 10° S
SPOT 5 2.7 17:26:40 10° SSE 17:30:52 57° ENE 17:35:06 10° N
Terra 3.1 17:29:49 10° ESE 17:33:28 23° ENE 17:37:07 10° NNE
ASTEX 1 4.0 17:29:29 10° SE 17:34:03 39° ENE 17:38:39 10° N
Cosmos 2360 4.3 17:28:46 10° NNW 17:34:29 71° ENE 17:40:10 10° SSE
Cosmos 2151 Rocket 3.7 17:40:23 10° SSE 17:44:35 50° E 17:48:49 10° NNE
Okean 2 Rocket 3.6 17:42:36 10° SSE 17:46:44 39° E 17:50:54 10° NNE
ATLAS 5 CENTAUR R/B 4.0 17:43:52 10° WNW 17:47:42 23° WSW 17:52:07 10° SSW
Cosmos 44 Rocket 3.7 17:43:16 10° S 17:47:58 44° ESE 17:52:50 10° NE
Cosmos 2056 Rocket 4.0 17:43:04 10° SSW 17:48:25 67° WNW 17:53:48 10° NNE
Cosmos 1110 Rocket 4.3 17:43:41 10° S 17:48:41 46° ESE 17:53:45 10° NNE
Meteor 2-1 Rocket 4.5 17:45:18 10° SSE 17:50:45 48° E 17:56:08 10° NNE
Cosmos 1624 Rocket 4.5 17:46:02 10° SSW 17:51:09 64° WNW 17:56:18 10° NNE
Cosmos 1536 Rocket 4.0 17:51:38 10° N 17:55:47 42° E 17:59:12 14° SSE
Cosmos 1980 Rocket 3.9 17:52:16 10° N 17:56:10 18° NE 17:59:34 11° E
USA 229 DEB 4.4 17:48:49 10° NNW 17:56:18 53° NE 18:03:05 15° SE
USA 229 4.4 17:48:52 10° NNW 17:56:21 52° NE 18:03:07 15° SE
GEOS 3 Rocket 3.7 17:52:16 11° SSE 17:57:25 86° WSW 18:02:49 10° NW
Cosmos 1447 Rocket 4.5 17:55:22 10° N 18:01:32 88° W 18:07:39 10° S
CZ-4C R/B 1.3 17:58:22 10° SSW 18:02:09 70° ESE 18:06:47 10° NE
Okean O Rocket 3.1 18:01:30 15° E 18:03:19 20° ENE 18:06:24 10° NNE
ATLAS 2AS CENTAUR R/B 4.2 17:57:38 10° WSW 18:04:09 40° NW 18:10:34 10° NNE
CZ-4 R/B 1.0 18:02:27 11° SSE 18:05:56 89° W 18:09:34 10° NNW
CSL-04 Rocket 4.0 18:02:21 10° S 18:07:50 69° WSW 18:13:18 10° NNW
BREEZE-M DEB (TANK) 3.5 18:01:13 10° WSW 18:08:03 48° NW 18:10:43 10° NE
CZ-4B DEB 4.2 18:02:42 10° SSE 18:08:07 75° ENE 18:13:39 10° N
Cosmos 1833 Rocket 3.5 18:02:59 10° SW 18:08:27 54° WNW 18:13:57 10° NNE
CZ-4B R/B 4.0 18:04:31 10° S 18:08:27 74° WSW 18:12:29 10° NNW
Meteor 2-3 Rocket 3.9 18:04:02 10° N 18:09:32 53° ENE 18:13:46 17° SSE
ISS -3.4 18:06:33 10° WSW 18:09:52 68° NW 18:13:12 10° NE
CZ-4B R/B 3.5 18:06:04 15° SE 18:10:36 55° ENE 18:16:06 10° N
USA 306 2.3 18:07:07 10° SSW 18:10:45 47° SE 18:13:10 13° ENE
Cosmos 292 Rocket 4.1 18:11:59 10° N 18:16:35 46° ENE 18:19:01 25° SE
Milstar 3 3.4 18:10:50 10° WSW 18:17:10 44° S 18:22:53 20° ESE
Okean-O 3.7 18:15:40 22° ESE 18:17:16 27° ENE 18:20:57 10° NNE
Cosmos 2016 Rocket 4.4 18:13:59 15° SSE 18:18:51 43° E 18:24:40 10° NNE
ARIANE 6 FM1 Upper Stage 4.2 18:15:28 10° WNW 18:18:53 29° WSW 18:22:04 11° S
MetOp-B 4.1 18:14:55 17° SSE 18:19:02 68° ENE 18:24:22 10° N
Spot 2 Rocket 4.2 18:17:45 23° ESE 18:20:10 36° ENE 18:24:44 10° N
Cosmos 2173 Rocket 3.9 18:14:40 10° S 18:20:44 80° E 18:26:56 10° N
Cosmos 1455 Rocket 3.5 18:19:32 24° SE 18:21:40 40° E 18:25:48 10° NNE
ADEOS 3.6 18:22:00 21° SSE 18:25:29 68° ENE 18:30:40 10° N
Okean 1 Rocket 3.2 18:24:18 10° SSW 18:28:38 75° W 18:33:03 10° N
PAYLOAD B 4.3 18:26:22 15° S 18:30:59 79° WSW 18:36:32 10° NNW
SL-4 R/B 2.3 18:27:47 10° NW 18:31:33 51° NE 18:32:53 34° E
Cosmos 332 Rocket 4.1 18:27:09 10° NNW 18:31:51 63° WSW 18:35:06 19° S
Meteor 1-27 4.2 18:32:47 18° S 18:36:55 60° E 18:42:27 10° NNE
ERS-1 Rocket 3.4 18:37:19 16° S 18:41:12 61° W 18:46:10 10° NNW
ATLAS 3B R/B 2.9 18:36:12 10° NNW 18:43:55 72° ENE 18:47:43 31° SE
Cosmos 2082 Rocket 2.2 18:41:58 16° S 18:46:28 58° ESE 18:52:04 10° NNE
Cosmos 1452 Rocket 3.6 18:42:58 10° SSW 18:48:10 75° WNW 18:53:24 10° NNE
DELTA 2 R/B (1) 3.4 18:43:42 10° WSW 18:49:15 76° SSE 18:52:58 22° ENE
Cosmos 1802 Rocket 3.9 18:44:01 10° S 18:50:10 87° W 18:56:21 10° N
Cosmos 1741 Rocket 4.0 18:49:32 10° NNW 18:54:50 70° ENE 18:56:27 44° SE
CZ-4B R/B 4.3 18:57:05 29° ENE 18:57:26 30° ENE 19:01:34 10° N
SL-08 R/B 4.1 18:52:53 10° N 18:57:34 52° WNW 19:02:09 10° SSW
Cosmos 968 Rocket 3.9 18:55:29 10° NNW 19:00:39 59° WSW 19:02:59 31° S
NOSS 3-3 (A) 3.3 19:00:23 23° SSW 19:03:26 69° ESE 19:09:03 10° NE
MOS 1-B 4.3 19:01:31 38° SSE 19:03:52 87° ENE 19:09:41 10° NNW
Cosmos 1302 Rocket 3.9 19:01:10 22° SSW 19:04:31 89° W 19:09:44 10° NNE
YAOGAN 11 4.5 19:01:10 10° N 19:05:32 64° WNW 19:08:05 24° SSW
Terra 3.3 19:07:54 17° SSW 19:10:46 32° W 19:14:58 10° NNW
Meteor 2-12 Rocket 4.4 19:05:50 10° N 19:11:54 71° E 19:13:35 48° SSE
Cosmos 1697 Rocket 3.5 19:06:35 10° NW 19:11:54 45° WSW 19:14:22 28° SSW
COSMOS 2406 3.6 19:12:46 42° E 19:12:46 42° E 19:17:45 10° NE
SL-16 R/B 4.0 19:13:58 10° NNE 19:17:45 18° NE 19:18:45 17° ENE
SPOT 3 Rocket 3.4 19:21:38 64° ESE 19:22:07 69° ENE 19:27:14 10° N
Cosmos 2228 3.3 19:22:12 55° WSW 19:22:38 59° W 19:26:42 10° N
Cosmos 1782 3.9 19:26:57 34° W 19:27:05 34° W 19:30:19 10° NNW
Cosmos 1850 Rocket 4.5 19:23:16 10° NNW 19:28:16 52° WSW 19:29:22 44° SW
USA 186 4.4 19:30:34 16° NW 19:30:34 16° NW 19:31:25 10° NW
BREEZE-M DEB (TANK) 4.1 19:26:02 10° WNW 19:29:03 40° SW 19:29:03 40° SW
NOSS 3-3 (C) 3.5 19:30:16 45° SW 19:31:55 85° WNW 19:37:44 10° NNE
Cosmos 1743 4.5 19:29:27 10° NNW 19:31:06 23° NW 19:31:06 23° NW
Cosmos 2333 Rocket 3.8 19:28:50 10° N 19:33:04 21° NE 19:33:40 21° ENE
Cosmos 2233 Rocket 4.3 19:29:57 28° SSW 19:33:17 63° W 19:39:25 10° N
CZ-4B R/B 4.3 19:38:49 30° NNW 19:38:49 30° NNW 19:40:39 10° NNW
Cosmos 1626 Rocket 4.3 19:34:29 10° N 19:37:42 45° NNE 19:37:42 45° NNE
Okean O Rocket 2.9 19:38:44 30° WSW 19:39:14 31° W 19:43:05 10° NW
Cosmos 1980 Rocket 2.4 19:34:58 10° NNW 19:40:35 62° WSW 19:41:19 57° SW
IRS-1C Rocket 3.9 19:44:24 86° E 19:44:25 86° ENE 19:49:43 10° NNW
ISS -0.4 19:45:33 10° NW 19:47:11 13° NNW 19:48:49 10° N
Tsikada Rocket 4.2 19:44:17 10° NNW 19:50:21 61° W 19:51:42 49° SW
Ariane Rocket 3.0 19:53:16 74° WNW 19:53:16 74° WNW 19:58:01 10° NNW
Okean-O 4.4 19:53:00 23° WSW 19:53:28 23° W 19:56:58 10° NW
Geosat 4.2 19:48:33 10° NNE 19:52:47 65° NNE 19:52:47 65° NNE
Cosmos 2098 Rocket 4.4 19:58:18 38° NE 19:58:18 38° NE 20:01:24 10° NNE
Cosmos 2360 Rocket 3.8 20:02:21 10° N 20:06:40 22° NE 20:06:40 22° NE
Gbstr 26 Del rocket 4.3 20:03:40 10° NW 20:06:35 37° NW 20:06:35 37° NW
USA 234 3.5 20:05:14 10° NE 20:10:18 53° ENE 20:10:18 53° ENE
Cosmos 2219 Rocket 4.1 20:19:36 10° N 20:23:32 19° NE 20:23:33 19° NE
Cosmos 1464 Rocket 4.1 20:33:46 71° NW 20:33:46 71° NW 20:39:24 10° N
ATLAS 3B R/B 4.4 20:28:28 10° WNW 20:33:49 21° WSW 20:34:58 21° WSW
Cosmos 2322 Rocket 3.3 20:29:48 10° N 20:34:09 37° NE 20:34:09 37° NE
Cosmos 2278 4.4 20:49:39 10° NNW 20:53:50 50° NNW 20:53:50 50° NNW
SL-16 R/B 3.1 20:56:42 10° NNW 21:00:34 43° NW 21:00:34 43° NW
Cosmos 2034 Rocket 4.5 21:08:45 57° NW 21:08:45 57° NW 21:14:15 10° N
Cosmos 2333 Rocket 3.4 21:12:07 10° NNW 21:15:41 37° NW 21:15:41 37° NW
Cosmos 2297 Rocket 4.5 21:36:55 14° ENE 21:36:55 14° ENE 21:38:05 10° NE
NOSS 3-4 (A) 4.0 21:36:06 10° NNW 21:42:12 69° NW 21:42:12 69° NW
NOSS 3-4 (C) 4.0 21:36:43 10° NNW 21:42:52 70° NW 21:42:52 70° NW
Cosmos 2360 Rocket 3.7 21:45:29 10° NNW 21:48:24 29° NW 21:48:24 29° NW
USA 234 4.5 21:48:35 10° NNE 21:54:27 37° NNW 21:57:36 24° W
Cosmos 2219 Rocket 3.7 22:02:18 10° NNW 22:05:14 31° NW 22:05:14 31° NW
SeaSat 1 4.1 22:18:14 31° N 22:18:14 31° N 22:21:03 10° NNW
Cosmos 2322 Rocket 4.3 22:14:18 10° NW 22:15:56 17° WNW 22:15:56 17° WNW
CZ-2C R/B 4.3 22:21:36 10° N 22:25:36 41° NNW 22:25:36 41° NNW
COSMOS 2428 3.7 22:29:57 10° NNW 22:33:44 42° N 22:33:44 42° N
Cosmos 2237 Rocket 3.7 22:31:47 10° N 22:36:42 29° ENE 22:36:55 29° ENE
Cosmos 2227 Rocket 3.7 22:45:01 28° ENE 22:45:01 28° ENE 22:48:20 10° NE
CZ-2C R/B 4.2 22:56:34 27° NW 22:56:34 27° NW 22:59:04 10° NNW
ACS3 Solar Sail 2.2 22:48:14 10° NNE 22:53:00 58° NNE 22:53:00 58° NNE
Cosmos 2263 Rocket 3.7 23:03:35 27° E 23:03:35 27° E 23:07:12 10° NE
Cosmos 2297 Rocket 3.1 23:18:41 42° NNW 23:18:41 42° NNW 23:23:01 10° N
IDEFIX/ARIANE 42P 3.1 23:29:19 10° NNE 23:33:38 57° NE 23:33:38 57° NE
Lacrosse 4 Rocket 3.5 23:37:27 24° N 23:37:27 24° N 23:39:13 10° NNE
Atlas Centaur 2 4.3 23:38:27 22° SE 23:38:27 22° SE 23:42:38 10° ESE
MSX 3.9 23:34:00 10° NNE 23:39:28 75° ENE 23:39:28 75° ENE
Cosmos 1553 Rocket 4.0 23:41:26 75° WNW 23:41:26 75° WNW 23:47:35 10° N
Nimbus 7 Rocket 4.4 23:43:52 10° N 23:49:46 73° WNW 23:49:46 73° WNW
H-2A R/B 4.3 23:49:50 10° NE 23:53:28 18° E 23:55:53 14° SE
